SENTINEL-2B

Last updated on Sat Mar 14 2026 00:02:37 GMT+0000 (Coordinated Universal Time)

1 42063U 17013A 26072.61307343 .00000436 00000+0 18288-3 0 9993 2 42063 98.5647 148.7500 0001153 93.9007 266.2308 14.30822680470977
UTC large
Height (km)
Speed (km/s)
/
Latitude / Longitude
Inclination (degrees)
Orbital Period (minutes)
Azimuth
Elevation
Range (km)
Doppler Factor

Next 0 passes for location: London (51.5072 / 0.1276)

Sorry there are no passes over London.